Location: Atherton
(17.2661°S, 145.4859°E)
Time: 18:39:42
(UTC+10:00)

ACS3 Solar Sail - Pass Details

Date: 20 May 2025
Orbit: 920 x 1019 km, 97.5° (Epoch: 20 June)

Event Time Altitude Azimuth Distance (km) Brightness Sun altitude
Rises 05:53:36 0° 0° (N) 3,541 5.0 -10.6°
Reaches altitude 10° 05:56:03 10° 355° (N) 2,606 4.2 -10.0°
Maximum altitude 06:01:41 52° 280° (W) 1,140 1.9 -8.7°
Drops below altitude 10° 06:07:28 10° 204° (SSW) 2,663 3.7 -7.4°
Sets 06:10:01 0° 199° (SSW) 3,625 4.4 -6.9°
